Regional Weather Roundup
Issued by NWS Little Rock, AR

Home | Current Version | Previous Version | Text Only | Print | Product List | Glossary Off
Versions: 1 2 3 4 5 6 7 8 9 10 11 12 13 14 15 16 17 18 19 20 21 22 23 24 25 26 27 28 29 30 31 32 33 34 35 36 37 38 39 40 41 42 43 44 45 46 47 48 49 50

719
ASUS44 KLZK 040105
RWRLZK

WEATHER ROUNDUP FOR ARKANSAS
NATIONAL WEATHER SERVICE LITTLE ROCK AR
800 PM CDT TUE MAY 03 2016

NOTE: "FAIR" INDICATES FEW OR NO CLOUDS BELOW 12,000 FEET WITH NO
SIGNIFICANT WEATHER AND/OR OBSTRUCTIONS TO VISIBILITY.

ARZ001-003-010-029-040200-
NORTHWEST ARKANSAS

CITY           SKY/WX    TMP DP  RH WIND       PRES   REMARKS
FAYETTEVILLE   CLEAR     57  45  64 W3        30.01S
FORT SMITH     CLEAR     67  39  35 N6        30.00R
HARRISON       CLEAR     59  38  45 NW5       30.00S
BENTONVILLE    CLEAR     63  39  42 CALM      30.02S
ROGERS         CLEAR     60  42  51 CALM      30.01F
SILOAM SPGS    CLEAR     63  41  45 CALM      30.02S
HIGHFILL       CLEAR     61  45  55 W5        30.00F
SPRINGDALE     CLEAR     63  41  45 NW7       30.02F
$$

ARZ004-005-016-040200-
NORTH CENTRAL ARKANSAS

CITY           SKY/WX    TMP DP  RH WIND       PRES   REMARKS
BATESVILLE     CLEAR     61  43  51 W3        29.97S
FLIPPIN        CLEAR    N/A N/A N/A NW5       29.95S
MTN HOME       CLEAR     58  42  55 CALM      29.97S
$$

ARZ040-041-040200-
WEST CENTRAL ARKANSAS

CITY           SKY/WX    TMP DP  RH WIND       PRES   REMARKS
MENA           CLEAR     64  46  52 NW3       30.02S
MOUNT IDA      CLEAR     61  47  59 CALM      29.99R
$$

ARZ009-017-025-026-028-040200-
NORTHEAST ARKANSAS

CITY           SKY/WX    TMP DP  RH WIND       PRES   REMARKS
CORNING          N/A     64  48  55 CALM      29.95S
JONESBORO      CLEAR     61  52  72 CALM      29.95F
NEWPORT        CLEAR     64  46  52 NW3       29.97F
WALNUT RIDGE   CLEAR     63  41  45 W5        29.95S
BLYTHEVILLE    CLOUDY    63  50  62 W3        29.96S
$$

ARZ022-023-033-042-044-040200-
CENTRAL ARKANSAS

CITY           SKY/WX    TMP DP  RH WIND       PRES   REMARKS
LITTLE ROCK    PTCLDY    66  42  41 NW5       29.98S
N LITTLE ROCK    N/A     61  47  60 CALM      29.98R
JACKSONVILLE   PTCLDY    61  52  72 VRB2      29.97S
SEARCY         CLEAR     60  49  66 CALM      29.99S
HOT SPRINGS    CLEAR     65  45  48 CALM      29.99S
RUSSELLVILLE   PTCLDY    62  48  60 CALM      29.98R
$$

ARZ036-040200-
EAST ARKANSAS

CITY           SKY/WX    TMP DP  RH WIND       PRES   REMARKS
WEST MEMPHIS   CLEAR     57  53  86 CALM      29.96S
$$

ARZ050-053-066-070-073-040200-
SOUTHWEST ARKANSAS

CITY           SKY/WX    TMP DP  RH WIND       PRES   REMARKS
ARKADELPHIA    FAIR      66  59  78 CALM      30.00S
CAMDEN         CLEAR     63  52  67 CALM      29.99S
TEXARKANA      CLEAR     61  52  72 CALM      30.00S
EL DORADO      CLEAR     60  54  80 CALM      30.00R
DE QUEEN       CLEAR     66  45  46 N3        29.99S
$$

ARZ056-057-069-040200-
SOUTHEAST ARKANSAS

CITY           SKY/WX    TMP DP  RH WIND       PRES   REMARKS
PINE BLUFF     CLEAR     64  48  56 CALM      29.99S
STUTTGART      CLEAR     64  45  48 CALM      29.99S
MONTICELLO     CLEAR     62  52  69 CALM      29.99R

$$






USA.gov is the U.S. government's official web portal to all federal, state and local government web resources and services.